Skip Page Navigation
NASA JPL Caltech
NASA Logo - Jet Propulsion Laboratory + View the NASA Portal
+ Near-Earth Object (NEO) Program
Search JPL
JPL Home Earth Solar System Stars & Galaxies Technology
JPL Solar System Dynamics
BODIES ORBITS EPHEMERIDES TOOLS PHYSICAL DATA DISCOVERY FAQ SITE MAP
JPL Small-Body Database Browser
Search: [ help ]  
11103 Miekerouppe (1995 SX19)
Classification: Main-belt Asteroid          SPK-ID: 2011103
Ephemeris | Orbit Diagram | Orbital Elements | Physical Parameters | Discovery Circumstances ]

[ show orbit diagram ]
Orbital Elements at Epoch 2456400.5 (2013-Apr-18.0) TDB
Reference: JPL 1 (heliocentric ecliptic J2000)
 Element Value Uncertainty (1-sigma)   Units 
e .08357738183160433 8.1108e-08  
a 2.889347063836379 3.2555e-08 AU
q 2.647863001038101 2.3206e-07 AU
i 1.904626207196153 6.6432e-06 deg
node 184.2758784917659 0.00018476 deg
peri 163.1548123556914 0.00018984 deg
M 231.5214956309318 4.9598e-05 deg
tp 2457040.715177988663
(2015-Jan-18.21517799)
0.00025172 JED
period 1793.899027761466
4.91
3.0319e-05
8.301e-08
d
yr
n .2006801912642928 3.3917e-09 deg/d
Q 3.130831126634657 3.5276e-08 AU
  Orbit Determination Parameters
   # obs. used (total)      1205  
   data-arc span      7337 days (20.09 yr)  
   first obs. used      1993-03-19  
   last obs. used      2013-04-20  
   planetary ephem.      DE405  
   SB-pert. ephem.      SB405-CPV-2  
   condition code      0  
   fit RMS      .4986  
   data source      ORB  
   producer      Otto Matic  
   solution date      2013-Apr-29 13:43:04  

Additional Information
 Earth MOID = 1.6406 AU 
 T_jup = 3.285 
[ show covariance matrix ]

Ephemeris | Orbit Diagram | Orbital Elements | Physical Parameters | Discovery Circumstances ]

Physical Parameter Table
Parameter Symbol Value Units Sigma Reference Notes
absolute magnitude H 13.1 mag n/a PDS3 (MPC 35238)  

11103 Miekerouppe           Discovered 1995 Sept. 18 by Spacewatch at Kitt Peak.
Mieke Rouppe was concerned with issues of freedom and human rights, and he was willing to be a courier and participant in the Dutch Resistance in The Hague during World War II.
NOTE: some special characters may not display properly (any characters within {} are an attempt to place the proper accent above a character)
Reference: 20010902/MPCPages.arcLast Updated: 2009-05-11

Alternate Designations
 1995 SX19 = 1993 FE49 = 1993 HZ7 
Ephemeris | Orbit Diagram | Orbital Elements | Physical Parameters | Discovery Circumstances ]
ABOUT SSD CREDITS/AWARDS PRIVACY/COPYRIGHT GLOSSARY LINKS
FirstGov 2013-May-22 11:34 UT
(server date/time)  
NASA Home Page
Site Manager:   Donald K. Yeomans
Webmaster  Alan B. Chamberlin